Home > Weather > Gandhinagar > Past weeks

Flag for India Past Weather in Gandhinagar, Gujarat, India — Yesterday and Last 2 Weeks

Now
84 °F

Partly cloudy.


Feels Like: 94 °F
Forecast: 82 / 96 °F
Wind: 5 mph from West

Location: Ahmadabad Airport

Current Time: Jun 29, 2016 at 5:36:23 AM

Latest Report: Jun 29, 2016 at 4:30 AM


Visibility: 2 mi

Pressure: 29.56 "Hg

Humidity: 79%

Dew Point: 77 °F

Location of GandhinagarLocation

Past Weather in Gandhinagar — Graph

°F

Gandhinagar Temperature Yesterday

Maximum temperature yesterday: 102 °F (at 4:30 PM)
Minimum temperature yesterday: 86 °F (at 2:30 AM)
Average temperature yesterday: 92 °F

High & Low Weather Summary for the Past Weeks

 TemperatureHumidityPressure
High108 °F (Jun 15, 3:00 PM)84% (Jun 22, 5:30 PM)29.68 "Hg (Jun 22, 5:30 PM)
Low82 °F (Jun 26, 6:00 AM)26% (Jun 15, 3:30 PM)29.42 "Hg (Jun 20, 5:30 PM)
Average92 °F57%29.57 "Hg
* Reported Jun 14 3:30 AM — Jun 29 4:00 AM, Gandhinagar, Weather by CustomWeather, © 2016

Note: Actual official high and low records may vary slightly from our data, if they occured in-between our weather recording intervals... More about our weather records

Advertising

Gandhinagar Weather History for the Previous 24 Hours

Scroll right to see more
 ConditionsComfort  
Time TempWeatherWind HumidityBarometerVisibility
4:00 AM
Wed, Jun 29
84 °FPartly cloudy.6 mph79%29.56 "Hg2 mi
3:30 AM86 °FPartly cloudy.6 mph79%29.53 "Hg2 mi
3:00 AM86 °FPartly cloudy.7 mph79%29.56 "Hg2 mi
2:30 AM86 °FPartly cloudy.5 mph79%29.56 "Hg2 mi
2:00 AM86 °FPartly cloudy.6 mph79%29.56 "Hg2 mi
1:30 AM86 °FPartly cloudy.5 mph79%29.56 "Hg2 mi
1:00 AM86 °FPartly cloudy.6 mph79%29.59 "Hg2 mi
12:30 AM86 °FPartly cloudy.5 mph79%29.59 "Hg2 mi
12:00 AM88 °FPartly cloudy.7 mph75%29.59 "Hg2 mi
11:00 PM
Tue, Jun 28
88 °FPartly cloudy.No wind79%29.59 "Hg2 mi
10:30 PM86 °FPartly cloudy.No wind79%29.59 "Hg2 mi
10:00 PM86 °FMostly cloudy.3 mph79%29.56 "Hg2 mi
9:30 PM86 °FMostly cloudy.2 mph79%29.56 "Hg2 mi
9:00 PM86 °FThunderstorms. Partly cloudy.5 mph79%29.53 "Hg2 mi
8:00 PM97 °FPassing clouds.10 mph50%29.50 "Hg2 mi
7:30 PM99 °FScattered clouds.6 mph44%29.47 "Hg2 mi
7:00 PM100 °FScattered clouds.3 mph40%29.47 "Hg2 mi
6:00 PM100 °FScattered clouds.3 mph40%29.45 "Hg4 mi
5:30 PM100 °FScattered clouds.3 mph42%29.45 "Hg4 mi
5:00 PM100 °FScattered clouds.2 mph40%29.45 "Hg4 mi
4:30 PM102 °FScattered clouds.6 mph40%29.47 "Hg4 mi
4:00 PM100 °FScattered clouds.3 mph42%29.47 "Hg4 mi
3:30 PM100 °FScattered clouds.2 mph42%29.47 "Hg4 mi
3:00 PM99 °FScattered clouds.8 mph44%29.50 "Hg4 mi
2:30 PM99 °FScattered clouds.5 mph44%29.50 "Hg4 mi
2:00 PM99 °FScattered clouds.7 mph44%29.53 "Hg4 mi
1:30 PM97 °FScattered clouds.6 mph47%29.53 "Hg4 mi
1:00 PM97 °FScattered clouds.6 mph47%29.56 "Hg4 mi
12:30 PM95 °FScattered clouds.6 mph50%29.59 "Hg3 mi
12:00 PM95 °FScattered clouds.3 mph53%29.59 "Hg3 mi
11:30 AM95 °FScattered clouds.3 mph50%29.59 "Hg3 mi
11:00 AM93 °FScattered clouds.6 mph56%29.62 "Hg3 mi
10:30 AM91 °FScattered clouds.5 mph63%29.62 "Hg3 mi
9:30 AM90 °FScattered clouds.6 mph67%29.59 "Hg2 mi
9:00 AM88 °FScattered clouds.6 mph70%29.59 "Hg2 mi
8:30 AM88 °FScattered clouds.5 mph70%29.59 "Hg2 mi
8:00 AM86 °FScattered clouds.3 mph75%29.59 "Hg2 mi
7:30 AM86 °FScattered clouds.5 mph75%29.59 "Hg2 mi
7:00 AM86 °FHaze.5 mph75%29.56 "Hg2 mi
6:30 AM86 °FHaze.6 mph70%29.56 "Hg2 mi
6:00 AM86 °FHaze.7 mph70%29.56 "Hg2 mi
5:30 AM86 °FHaze.6 mph70%29.56 "Hg2 mi
5:00 AM86 °FHaze.7 mph70%29.53 "Hg2 mi
Weather by CustomWeather, © 2016

See weather overviewHow to use our weather pages